ONEWEB-0213 (48790 NORAD) Tracking and Keplerian Element Data

This shows tracking and keplerian element data for the satellite.

Feedback or suggestion? Click here.




ElementValue
Catalog48790
NameONEWEB-0213
Epoch Orbit1127
Epoch Day214.91667824
Epoch Year2021
RAAN254.7273
Inclination87.6081
Eccentricity0.0012324
Argument of Perigee35.2349
Mean Anonmoly198.3644
Mean Motion14.36076682
Decay Rate-0.01412754
L11 48790U 21045Z 21214.91667824 -.01412754 00000-0 -51942+0 0 9999
L22 48790 87.6081 254.7273 0012324 35.2349 198.3644 14.36076682 11277

Live tracking and technical data element details for ONEWEB-0213 (NORAD 48790). ONEWEB-0213 can be tracked NOW for your location showing map with azimuth and elevation plus other details from your city location.

Track the satellite on the map from your city or location and see movement details for azimuth, elevation, latitude, longitude, range, height, and movement on the map or in text.







IsCatalogInMostPopularTable: catalog: 48790, numindb: 20
Update: records affected: 1



GetName: 48790 ONEWEB-0213

Hit Count: updated at: Wed, 04 Aug 2021 00:36:07 GMT